STARLINK-1186 (45099 NORAD) Tracking and Keplerian Element Data

This shows tracking and keplerian element data for the satellite.

Feedback or suggestion? Click here.




ElementValue
Catalog45099
NameSTARLINK-1186
Epoch Orbit176
Epoch Day189.91668981
Epoch Year2020
RAAN182.6697
Inclination53.0002
Eccentricity0.000134
Argument of Perigee88.075
Mean Anonmoly315.4821
Mean Motion15.05549553
Decay Rate0.00037179
L11 45099U 20006BH 20189.91668981 .00037179 00000-0 25595-2 0 9998
L22 45099 53.0002 182.6697 0001340 88.0750 315.4821 15.05549553 1764

Live tracking and technical data element details for STARLINK-1186 (NORAD 45099). STARLINK-1186 can be tracked NOW for your location showing map with azimuth and elevation plus other details from your city location.

Track the satellite on the map from your city or location and see movement details for azimuth, elevation, latitude, longitude, range, height, and movement on the map or in text.







IsCatalogInMostPopularTable: catalog: 45099, numindb: 34
Update: records affected: 1



GetName: 45099 STARLINK-1186

Hit Count: updated at: Fri, 10 Jul 2020 04:17:11 GMT